Regional Weather Roundup
Issued by NWS

Home | Current Version | Previous Version | Graphics & Text | Print | Product List | Glossary On
Versions: 1 2 3 4 5 6 7 8 9 10 11 12 13 14 15 16 17 18 19 20 21 22 23 24 25 26 27 28 29 30 31 32 33 34 35 36 37 38 39 40 41 42 43 44 45 46 47 48 49 50
000
ASUS43 KLOT 060508
RWRIL

ILLINOIS REGIONAL WEATHER ROUNDUP
NATIONAL WEATHER SERVICE CHICAGO/ROMEOVILLE IL
1100 PM CST MON DEC 05 2016

NOTE: "FAIR" INDICATES FEW OR NO CLOUDS BELOW 12,000 FEET WITH NO
SIGNIFICANT WEATHER AND/OR OBSTRUCTIONS TO VISIBILITY.

* THESE STATIONS ARE NOT UNDER NWS QUALITY CONTROL. THEY ALSO MAY NOT
  REPORT WEATHER SUCH AS PRECIPITATION OR FOG.

ILZ001-002-007-009-015-016-024-060600-
NORTHWEST ILLINOIS

CITY           SKY/WX    TMP DP  RH WIND       PRES   REMARKS
MOLINE         CLOUDY    34  30  85 SE13      29.87S WCI  25
STERLING*      CLOUDY    32  31  96 SE6       29.91S FOG     WCI  26
SAVANNA*       CLOUDY    32  30  92 SE12      29.89F WCI  23
$$

ILZ003-004-008-010-011-017-018-060600-
NORTH CENTRAL ILLINOIS

CITY           SKY/WX    TMP DP  RH WIND       PRES   REMARKS
ROCKFORD       FOG       31  30  96 SE8       29.93S VSB 1   WCI  23
FREEPORT*      CLOUDY    30  29  97 SE13      29.91F FOG     WCI  20
ROCHELLE*      FOG       31  31  99 SE10      29.91R VSB 1/2 WCI  22
DE KALB*       FOG       31  31  99 SE12      29.90F VSB 1/2 WCI  22
$$

ILZ005-006-012>014-019>023-060600-
NORTHEAST ILLINOIS

CITY           SKY/WX    TMP DP  RH WIND       PRES   REMARKS
CHICAGO-OHARE  CLOUDY    33  32  96 SE8       29.93F FOG     WCI  26
CHICAGO-MIDWAY CLOUDY    35  31  85 SE6       29.94F FOG     WCI  30
AURORA         CLOUDY    33  31  92 E12       29.92F FOG     WCI  24
LANSING*       PTCLDY    31  31 100 E6        29.94F FOG     WCI  26
JOLIET*        MOCLDY    33  32  96 E7        29.92F FOG     WCI  27
WAUKEGAN       CLOUDY    34  32  92 S7        29.93F FOG     WCI  28
DUPAGE AIRPORT FOG       32  30  92 E10       29.91F VSB 1   WCI  24
KANKAKEE*      CLEAR     29  28  96 CALM      29.93S FOG
WHEELING       CLOUDY    33  31  92 CALM      29.95F FOG
MORRIS*        CLOUDY    33  32  96 E7        29.91F FOG     WCI  27
ROMEOVILLE*    CLOUDY    32  32 100 E12       29.92F FOG     WCI  23
NORTHERLY ISL    N/A     36  34  92 SE9         N/A  WCI  29
$$

LMZ740>746-060600-
SOUTHERN LAKE MICHIGAN

STATION/POSITION SKY/WX   TEMP    WIND        PRES    VSBY  WAVE
                          AIR SEA DIR/SP/G                  HT/PER
                          (F)     (DEG/KT/KT) (MB)    (MI)  (FT/S)
HARRISON CRIB              38     130/ 17/ 18   N/A
BURNHAM HARBOR             36     110/ 13/ 14   N/A
CALUMET HARBOR             35     100/  9/ 14 1013.5F
BURNS HARBOR               33     100/ 11/ 14 1014.2F
$$

ILZ025>027-034>036-040-047-049-050-058-095>099-060600-
WEST-CENTRAL ILLINOIS

CITY           SKY/WX    TMP DP  RH WIND       PRES   REMARKS
QUINCY         CLOUDY    35  34  96 SE12      29.81F FOG     WCI  27
GALESBURG*     CLOUDY    35  34  96 SE8       29.86F WCI  28
MACOMB*        CLOUDY    35  35  99 E7        29.87F FOG     WCI  29
JACKSONVILLE*  CLOUDY    35  33  93 SE9       29.84F WCI  28
PITTSFIELD*    CLOUDY    36  35  95 SE8       29.83F WCI  30
$$

ILZ028>032-037-038-041>044-048-051>054-059>061-060600-
CENTRAL ILLINOIS

CITY           SKY/WX    TMP DP  RH WIND       PRES   REMARKS
PONTIAC        FOG       30  30 100 E7        29.92S VSB 1   WCI  23
BLOOMINGTON    FOG       27  26  96 E6        29.88F VSB 1/2 WCI  20
DECATUR        PTCLDY    32  30  92 E7        29.86F WCI  26
PEORIA         CLOUDY    33  33 100 E8        29.88F FOG     WCI  26
LACON*         FOG       32  32 100 E9        29.89F VSB 1   WCI  24
LINCOLN*       CLEAR     32  32  99 E6        29.87F FOG     WCI  27
SPRINGFIELD    PTCLDY    33  31  92 E6        29.86F FOG     WCI  28
TAYLORVILLE    PTCLDY    33  32  97 E5        29.85F FOG     WCI  28
$$

ILZ033-039-045-046-055>057-062-063-060600-
EAST-CENTRAL ILLINOIS

CITY           SKY/WX    TMP DP  RH WIND       PRES   REMARKS
CHAMPAIGN      PTCLDY    34  31  88 E9        29.88F WCI  27
RANTOUL*       MOCLDY    35  34  95 E7        29.89S WCI  29
MATTOON        CLOUDY    34  31  88 E5        29.86F WCI  30
PARIS*         PTCLDY    34  33  96 E6        29.88F WCI  29
$$

ILZ079-100>102-060600-
SOUTHWEST ILLINOIS

CITY           SKY/WX    TMP DP  RH WIND       PRES   REMARKS
ALTON          CLOUDY    35  33  94 E7        29.83F WCI  29
BELLEVILLE     CLOUDY    38  38  99 NE6       29.81F WCI  34
CAHOKIA*       CLOUDY    39  35  86 NE6       29.82F WCI  35
SPARTA*        CLOUDY    38  36  90 CALM      29.81F
$$

ILZ064>066-069>071-074>076-080>082-084>086-088>090-092>094-060600-
SOUTH-CENTRAL ILLINOIS

CITY           SKY/WX    TMP DP  RH WIND       PRES   REMARKS
CARBONDALE     CLOUDY    41  38  89 NE5       29.80F
CAIRO*         CLOUDY    41  38  91 NE7       29.79S
EFFINGHAM*     CLOUDY    37  36  95 NE5       29.86F WCI  33
CENTRALIA*     CLOUDY    38  36  93 CALM      29.82F
SALEM*         CLOUDY    38  35  87 NE5       29.83F WCI  35
METROPOLIS*    CLOUDY    42  38  86 CALM      29.80F
$$

ILZ067-068-072-073-078-083-087-091-060600-
SOUTHEAST ILLINOIS

CITY           SKY/WX    TMP DP  RH WIND       PRES   REMARKS
LAWRENCEVILLE  CLOUDY    38  34  85 N7        29.84F WCI  33
FLORA*         CLOUDY    38  36  92 N5        29.84F WCI  34
FAIRFIELD*     CLOUDY    38  36  91 N3        29.82F
HARRISBURG*    CLOUDY    41  38  87 NE3       29.81F
ROBINSON*      CLOUDY    36  34  92 NE5       29.86F WCI  32
CARMI*         CLOUDY    41  38  89 NE3       29.82S
$$

ABBREVIATIONS USED IN REMARKS
   TC - TEMPERATURE IN CELSIUS
  WCI - WIND CHILL INDEX
   HX - HEAT INDEX
  VSB - VISIBILITY
$$





USA.gov is the U.S. government's official web portal to all federal, state and local government web resources and services.